Temperature
23 20 20 20 20 21 21 21 21 21 22 21 20 20 20 20 21 21 21 21 20 20 19 18 18 17 17 16 16 15 15 14 14 14 14 13 13 13 13 13 13 13 13 13
20 20 21 21 22 22 21 21 21 22 23 22 21 21 20 20 20 21 21 21 20 19 19 18 18 17 17 16 16 15 15 14 14 13 13 13 13 13 12 12 12 13 13 13
20 21 22 23 22 22 21 21 22 22 22 22 22 20 20 20 21 21 21 21 20 20 19 18 18 17 17 16 16 15 14 14 14 13 13 13 13 13 13 13 12 12 12 12
20 22 23 22 22 21 21 22 23 22 21 19 21 19 19 19 19 20 20 20 20 19 19 18 18 17 17 16 16 15 14 14 13 13 13 13 12 12 12 12 12 12 12 12
20 21 22 22 23 22 21 23 23 22 21 19 19 18 18 19 19 19 19 20 20 20 19 19 18 18 17 16 16 15 14 14 13 13 13 12 12 12 12 12 12 12 12 12
21 22 22 22 23 23 22 21 20 17 17 18 19 18 19 17 19 19 19 20 20 20 19 19 18 17 17 16 16 15 14 14 13 13 13 13 12 12 12 12 12 12 12 12
21 22 23 23 23 23 20 18 18 18 17 18 19 19 18 19 19 19 19 20 20 20 19 19 18 17 17 16 16 15 15 14 14 13 13 13 12 12 12 12 12 12 12 12
20 21 23 23 22 21 21 18 18 18 18 18 20 19 18 20 20 21 21 21 20 20 19 19 18 18 17 16 16 15 15 14 14 13 13 13 13 12 12 12 12 12 11 11
19 20 23 24 23 22 21 19 18 17 18 18 18 19 20 20 19 19 20 20 20 20 19 19 18 18 17 16 16 15 15 15 14 14 13 13 13 12 12 12 12 12 11 11
20 21 22 23 23 23 21 19 16 17 18 18 19 18 17 19 19 19 19 19 20 20 19 19 18 18 17 17 16 16 15 15 14 14 14 13 13 13 12 12 12 12 11 11
20 20 21 22 22 21 22 21 17 15 16 16 18 18 18 18 18 18 19 20 20 20 20 19 18 18 17 17 16 16 15 15 15 14 14 13 13 13 13 12 12 12 12 11
20 18 18 20 21 21 21 20 17 18 18 16 16 17 19 18 19 20 20 21 21 20 20 19 19 18 17 17 16 16 16 15 15 15 14 14 13 13 13 13 12 12 12 11
20 18 18 19 19 21 22 21 18 16 15 15 16 18 19 19 19 21 21 21 20 20 20 19 19 18 18 17 17 16 16 16 15 15 14 14 14 13 13 13 13 12 12 12
19 18 18 19 19 19 21 21 20 17 16 17 17 18 20 19 19 19 20 21 20 20 20 19 19 18 18 17 17 17 16 16 16 15 15 15 14 14 14 13 13 13 12 12
19 19 20 20 20 20 20 21 20 19 17 17 19 19 19 18 18 20 21 21 20 20 19 19 19 18 18 18 17 17 17 16 16 16 15 15 15 14 14 14 13 13 13 12
18 20 21 21 22 21 21 20 20 19 19 18 19 19 19 19 20 20 20 20 20 20 20 19 19 19 18 18 18 17 17 17 16 16 16 15 15 14 14 14 13 13 13 13
18 19 19 18 20 21 20 20 20 19 19 19 19 19 19 18 18 20 21 20 20 20 20 19 19 19 18 18 18 18 17 17 16 16 16 15 15 15 14 14 14 13 13 13
17 17 16 17 19 19 19 20 20 20 20 19 19 19 18 19 21 21 21 21 20 20 19 19 19 18 18 18 18 17 17 17 16 16 16 15 15 15 14 14 14 14 13 13
17 17 16 16 18 18 20 21 20 20 20 19 19 19 20 21 20 19 20 21 20 20 19 19 19 18 18 18 18 17 17 17 16 16 16 15 15 15 15 14 14 14 13 13
16 16 16 16 18 18 20 21 22 21 21 20 20 19 19 19 16 17 20 20 20 19 19 19 18 18 18 18 17 17 17 16 16 16 16 15 15 15 15 14 14 14 14 13
18 17 16 16 17 17 19 21 22 20 20 22 22 21 20 19 20 21 20 20 19 19 18 18 18 18 18 17 17 17 17 16 16 15 15 15 15 14 14 14 14 14 14 14
16 16 15 14 16 18 20 21 20 20 22 23 23 23 22 22 22 20 20 19 19 19 18 18 18 17 17 17 17 17 16 16 15 15 15 14 14 14 14 14 14 13 13 13
16 17 16 16 18 20 22 23 24 24 24 24 23 23 23 22 21 20 19 19 19 18 18 17 17 17 17 16 16 16 15 15 15 14 14 14 13 13 13 13 13 13 13 13
17 17 16 16 17 19 22 23 24 24 24 24 24 23 23 22 21 20 19 19 18 18 17 17 17 17 16 16 16 15 15 14 14 14 13 13 13 13 13 12 12 12 12 12
18 18 17 17 18 19 21 23 24 24 24 24 23 23 23 22 21 20 19 19 18 17 17 17 16 16 16 15 15 14 14 14 13 13 12 12 12 12 12 12 11 11 11 11
17 18 17 17 19 18 22 24 24 23 23 23 23 22 22 22 21 20 19 18 17 17 16 16 16 15 15 14 14 13 13 13 12 12 12 11 11 11 11 11 11 11 11 11
Wind_Speed
6 5 6 8 8 8 7 4 4 5 7 8 9 8 9 10 9 8 6 6 7 7 7 7 7 7 7 5 5 4 4 3 3 2 2 3 4 4 4 4 6 7 7 7
3 5 8 8 8 6 4 3 2 2 5 7 7 6 7 10 11 10 9 9 9 8 7 7 6 6 6 5 5 5 4 3 2 1 1 1 2 2 3 4 5 7 7 7
7 5 7 8 7 5 3 5 5 5 2 2 2 5 1 5 5 6 7 8 10 12 11 8 7 7 6 6 5 5 4 3 2 1 2 3 3 3 4 5 5 5 7 6
3 4 5 6 5 6 4 6 6 4 2 3 2 1 4 4 5 6 6 7 9 10 10 9 8 8 7 6 6 6 4 3 1 1 2 1 1 2 3 3 4 6 6 6
4 4 5 5 5 7 8 6 4 2 3 2 1 4 6 3 6 7 7 8 9 10 11 10 9 9 8 7 6 5 4 2 1 0 1 0 1 2 3 3 5 5 5 5
2 2 5 6 3 5 5 4 7 6 5 2 5 6 5 6 8 7 7 8 9 9 9 9 8 8 6 5 5 5 4 3 2 1 1 1 1 2 3 4 5 5 4 4
2 2 1 4 4 2 6 6 5 5 4 5 3 4 7 6 7 8 9 9 9 9 9 9 9 8 7 7 6 5 5 4 3 2 2 2 2 2 2 3 4 4 4 4
3 3 4 3 6 5 5 9 7 4 4 5 2 3 5 3 5 7 8 9 9 9 9 10 10 9 8 8 7 6 5 4 4 3 3 2 2 2 2 3 3 4 3 4
6 4 2 1 2 7 6 4 7 6 2 2 3 2 4 0 3 4 6 7 9 9 9 9 9 8 8 8 8 7 6 5 4 4 3 2 3 2 3 4 3 3 4 4
7 3 1 1 5 4 6 8 6 4 2 2 3 3 5 8 8 6 7 8 8 8 8 8 8 8 7 8 7 6 6 6 5 4 3 2 2 3 3 2 4 4 5 5
4 5 0 2 3 5 3 3 5 4 5 5 3 6 7 11 10 9 9 9 9 9 9 8 8 7 7 6 6 5 5 5 4 4 3 2 2 2 2 2 3 3 4 4
4 5 2 4 5 5 6 6 7 4 3 4 4 7 5 9 9 9 8 8 8 9 8 8 8 7 6 6 6 6 6 6 6 5 4 3 2 2 2 3 3 3 4 4
5 6 4 5 6 2 3 5 6 6 5 4 4 6 3 4 6 7 8 8 7 8 7 6 6 7 7 7 6 6 6 7 6 5 4 3 3 3 3 4 4 3 3 4
5 5 6 8 7 6 5 6 7 7 5 4 6 6 3 6 7 7 7 8 7 8 8 7 7 7 7 7 7 7 6 6 6 6 5 5 5 5 5 4 3 3 4 4
6 4 6 7 7 6 8 9 9 8 9 8 7 7 9 10 10 9 7 7 6 6 6 7 7 7 6 6 6 6 6 7 6 6 6 7 6 5 4 4 4 4 4 4
4 4 1 3 4 6 6 9 11 10 8 8 6 7 7 7 6 6 8 8 7 6 7 7 6 6 5 6 6 6 6 7 6 6 7 6 5 5 5 5 4 4 4 4
4 5 3 4 5 2 6 11 13 9 8 10 11 10 6 7 9 10 9 8 8 7 6 6 6 6 6 5 5 5 5 4 4 4 5 5 5 5 6 5 4 5 5 4
8 6 4 2 1 5 10 7 10 12 10 10 9 9 12 11 9 7 8 9 8 7 6 5 5 4 3 3 3 3 3 3 2 2 3 4 4 5 5 5 5 6 5 5
7 8 5 3 4 8 10 7 8 10 9 10 11 10 10 7 5 0 5 7 8 7 6 5 5 4 3 2 3 4 3 2 1 1 3 4 4 5 5 5 6 6 5 5
5 6 6 4 3 6 10 8 5 6 5 7 12 13 11 10 6 6 6 7 7 7 6 5 5 5 4 2 4 6 3 2 1 3 4 4 3 4 5 6 6 5 5 6
3 3 5 5 5 8 10 5 6 6 9 6 11 12 14 12 9 7 9 7 7 6 6 7 7 6 4 3 5 6 4 3 3 3 3 3 3 4 4 4 4 4 5 5
9 7 7 6 5 9 7 5 8 9 4 5 9 10 11 9 8 10 10 9 8 7 7 8 8 6 4 4 6 6 3 3 3 3 3 4 4 4 4 4 5 4 4 4
8 10 8 10 10 9 7 10 8 7 6 7 9 9 12 11 10 10 9 9 8 8 7 7 8 7 5 5 5 5 4 4 3 4 4 5 6 6 5 4 4 4 3 3
5 3 3 5 9 8 7 6 6 8 8 8 9 11 12 12 12 11 11 9 8 7 7 7 8 8 6 5 6 5 5 5 5 5 5 6 6 7 6 5 4 3 3 3
6 2 3 6 8 5 6 8 8 7 7 8 9 10 13 15 12 11 11 10 9 7 6 7 8 8 7 6 6 6 6 6 6 6 6 6 6 6 6 5 4 3 3 2
6 6 6 8 9 7 10 11 9 9 10 11 11 10 10 13 14 12 11 10 9 9 8 9 9 8 7 6 6 6 6 6 6 5 6 5 5 5 5 5 5 6 6 8
Wind_Direction
167 137 186 196 179 176 178 187 228 230 194 183 220 234 212 200 190 189 186 178 179 176 169 157 149 138 124 111 104 101 89 64 53 31 10 355 343 336 342 341 350 348 344 340
107 201 202 168 166 165 163 171 222 254 199 187 223 247 214 192 192 188 178 168 158 149 148 148 143 136 129 121 112 104 102 95 73 51 309 285 304 309 315 327 345 351 349 343
168 209 176 164 166 151 167 169 186 211 267 295 188 341 227 196 185 188 175 162 154 158 159 159 152 147 136 129 132 126 128 120 96 52 21 6 4 349 347 342 338 333 345 349
193 228 162 154 175 159 191 202 188 188 128 281 141 241 269 202 181 184 169 149 155 159 159 160 156 154 153 158 149 139 142 139 128 85 55 31 3 329 301 303 313 324 338 345
203 190 165 174 188 161 192 207 185 146 131 342 359 153 279 178 188 202 190 175 170 167 166 167 166 165 167 167 157 152 153 163 190 173 132 64 318 289 298 314 329 333 330 333
198 210 170 177 167 159 154 67 44 48 67 324 235 158 236 214 200 193 197 189 180 173 168 166 165 159 167 172 164 160 165 199 229 250 258 185 258 298 321 324 327 326 319 319
21 347 178 138 107 56 85 82 34 1 5 262 240 156 231 232 193 176 180 186 183 175 168 167 166 170 177 182 183 179 182 213 240 251 253 229 237 260 282 293 302 312 315 313
144 253 225 169 159 165 154 133 151 194 227 281 340 201 245 244 180 163 166 174 177 179 179 178 182 183 185 188 189 189 196 214 228 233 246 244 249 252 270 282 286 295 295 292
166 231 282 128 132 136 131 147 166 144 203 257 295 339 328 337 169 172 178 176 182 187 187 185 187 186 188 190 196 199 199 209 219 226 231 250 268 262 277 292 298 302 304 308
149 150 226 56 60 52 140 143 99 121 160 275 299 230 222 212 213 207 199 199 201 194 188 186 186 188 192 197 202 201 198 202 213 216 222 226 255 265 277 298 316 315 318 323
134 133 339 48 185 199 150 136 115 125 157 158 224 259 223 197 198 199 206 203 196 190 188 190 193 195 193 194 196 199 203 203 211 210 211 219 254 262 280 299 300 305 312 320
134 119 169 252 277 200 175 177 146 153 213 171 183 261 262 189 192 188 197 199 194 189 186 188 190 191 194 200 204 202 205 207 214 210 206 217 231 242 272 282 287 300 309 315
124 112 85 353 334 328 192 178 153 136 128 156 177 260 297 182 187 194 190 189 187 186 183 183 185 192 201 208 210 208 208 213 212 202 202 216 226 238 254 266 280 294 302 313
118 118 158 187 215 204 211 208 168 136 163 209 220 233 218 194 196 204 197 185 182 186 184 185 197 211 217 218 216 214 218 213 206 200 204 217 228 231 240 256 273 283 292 301
114 149 199 224 230 193 206 210 192 180 184 188 222 207 216 204 197 198 192 182 175 181 187 192 202 216 225 229 229 224 222 216 207 201 211 224 231 231 240 256 268 279 291 292
109 148 173 288 253 217 226 219 207 205 194 202 214 235 229 196 175 177 179 170 172 183 189 195 201 205 213 220 223 222 223 219 205 208 221 230 231 233 240 251 260 275 286 290
146 145 138 263 293 337 264 224 206 207 204 188 209 220 179 174 185 186 184 177 177 180 181 184 189 197 208 214 206 202 212 199 191 216 233 236 234 239 246 252 260 268 272 277
149 140 143 203 68 225 243 236 198 204 217 197 194 188 179 187 190 188 177 170 176 176 171 174 180 186 202 205 191 181 166 160 183 227 254 252 245 251 256 257 261 263 262 266
151 143 138 148 221 271 285 264 187 185 232 206 186 183 180 150 106 125 194 167 169 171 169 171 167 157 148 152 153 128 118 126 140 261 265 259 249 254 262 264 263 261 260 266
97 110 127 139 190 246 254 266 189 127 244 220 178 174 165 139 153 223 199 157 150 146 146 143 131 111 107 109 117 104 91 63 323 274 264 259 252 252 260 263 264 264 258 263
144 121 151 171 214 262 256 260 119 148 235 216 177 171 167 177 191 178 157 145 138 133 132 125 111 96 93 100 101 88 65 13 309 302 303 299 284 270 267 274 274 275 279 282
180 177 187 161 195 252 246 159 179 211 221 173 172 170 167 167 145 143 147 144 138 129 125 122 111 100 80 80 91 80 39 329 336 3 0 335 318 312 314 290 292 291 292 297
199 193 187 187 211 232 216 203 212 178 174 175 165 165 149 145 153 155 154 152 147 141 136 127 120 106 78 64 79 73 7 353 14 22 1 342 339 338 334 322 314 317 315 307
267 188 165 242 261 255 239 223 198 183 182 176 163 158 154 157 160 158 156 154 150 144 141 131 119 108 86 63 60 52 19 25 45 31 7 355 353 348 348 349 346 344 341 333
248 210 212 253 272 295 276 237 210 187 164 155 154 164 164 157 159 161 159 156 150 141 134 126 121 114 103 80 58 39 32 46 49 35 17 6 2 354 351 355 356 355 356 13
223 205 206 238 238 212 237 235 208 184 182 173 163 163 168 164 161 157 156 153 147 139 130 123 120 116 107 86 60 34 30 51 56 38 18 8 3 359 359 358 358 3 11 14
Height
1499 1508 1515 1514 1513 1515 1519 1524 1527 1521 1515 1519 1521 1520 1518 1518 1520 1521 1521 1522 1523 1524 1526 1527 1527 1527 1526 1525 1524 1522 1521 1519 1517 1515 1513 1511 1509 1507 1505 1504 1502 1500 1498 1496
1504 1509 1504 1505 1508 1511 1516 1522 1523 1517 1512 1516 1519 1518 1514 1515 1516 1518 1519 1520 1520 1522 1524 1526 1526 1526 1525 1524 1523 1521 1520 1518 1516 1514 1512 1510 1508 1506 1505 1503 1501 1499 1497 1495
1505 1504 1500 1505 1510 1514 1516 1520 1520 1519 1514 1514 1517 1524 1518 1515 1516 1518 1518 1518 1519 1520 1522 1524 1524 1524 1524 1523 1522 1520 1519 1517 1515 1513 1512 1510 1508 1506 1504 1502 1500 1498 1496 1494
1503 1500 1500 1505 1509 1512 1518 1510 1511 1514 1523 1529 1522 1539 1524 1518 1517 1517 1517 1517 1518 1519 1521 1522 1523 1523 1522 1522 1521 1519 1518 1517 1515 1513 1511 1509 1507 1505 1503 1501 1499 1497 1495 1493
1503 1499 1501 1506 1505 1506 1510 1505 1508 1512 1520 1528 1527 1536 1532 1519 1520 1517 1515 1516 1517 1518 1519 1520 1521 1521 1521 1520 1520 1519 1517 1516 1514 1513 1511 1509 1507 1505 1503 1500 1498 1496 1494 1492
1499 1496 1497 1499 1499 1500 1503 1509 1514 1524 1530 1540 1528 1535 1531 1523 1516 1514 1514 1515 1516 1517 1518 1519 1519 1520 1519 1519 1519 1518 1517 1515 1514 1512 1510 1508 1506 1504 1502 1499 1497 1495 1493 1491
1504 1499 1496 1496 1502 1503 1507 1524 1541 1542 1551 1543 1524 1528 1526 1511 1508 1509 1511 1513 1514 1515 1516 1517 1518 1518 1518 1518 1517 1517 1516 1514 1513 1511 1510 1508 1505 1503 1501 1499 1496 1494 1492 1490
1514 1514 1499 1496 1500 1506 1509 1521 1542 1550 1550 1541 1523 1528 1520 1508 1507 1507 1509 1511 1512 1513 1514 1515 1516 1516 1516 1516 1516 1516 1515 1514 1512 1511 1509 1507 1505 1503 1501 1498 1496 1494 1491 1489
1513 1512 1496 1494 1495 1499 1510 1518 1520 1535 1536 1540 1534 1524 1515 1509 1509 1509 1509 1510 1511 1511 1512 1513 1514 1515 1515 1515 1515 1514 1514 1513 1511 1510 1508 1506 1504 1502 1500 1498 1495 1493 1491 1488
1500 1508 1500 1496 1496 1498 1502 1510 1525 1533 1542 1547 1535 1530 1528 1514 1511 1509 1509 1509 1509 1510 1511 1511 1512 1513 1513 1514 1513 1513 1512 1512 1510 1509 1507 1505 1503 1501 1499 1497 1494 1492 1490 1487
1495 1507 1507 1502 1503 1506 1506 1509 1520 1533 1537 1546 1544 1534 1507 1506 1505 1506 1505 1505 1506 1507 1508 1510 1511 1512 1512 1512 1512 1512 1511 1510 1509 1508 1506 1505 1503 1501 1498 1496 1493 1491 1489 1486
1494 1507 1516 1508 1500 1497 1501 1506 1517 1530 1531 1536 1541 1530 1498 1499 1500 1501 1502 1503 1504 1506 1507 1508 1509 1510 1510 1511 1510 1510 1510 1509 1508 1507 1505 1504 1502 1500 1497 1495 1493 1490 1488 1485
1492 1508 1523 1522 1514 1503 1501 1502 1508 1518 1528 1535 1539 1523 1498 1499 1499 1500 1501 1501 1503 1504 1505 1506 1507 1508 1509 1509 1509 1509 1508 1508 1507 1506 1504 1503 1501 1499 1497 1494 1492 1490 1487 1485
1489 1503 1515 1520 1514 1505 1502 1500 1502 1513 1525 1526 1522 1513 1501 1499 1499 1499 1499 1500 1501 1502 1503 1504 1505 1506 1507 1507 1507 1507 1507 1506 1505 1504 1503 1501 1500 1498 1496 1493 1491 1489 1486 1484
1488 1501 1500 1499 1495 1497 1497 1497 1498 1504 1510 1516 1509 1505 1499 1496 1495 1496 1497 1498 1499 1500 1501 1502 1503 1504 1505 1505 1505 1505 1505 1504 1504 1503 1502 1500 1499 1497 1495 1492 1490 1488 1486 1483
1488 1496 1496 1496 1490 1492 1493 1492 1494 1496 1498 1501 1500 1499 1490 1490 1493 1494 1495 1496 1497 1498 1499 1500 1501 1502 1502 1503 1503 1503 1503 1503 1502 1501 1500 1499 1497 1496 1494 1491 1489 1487 1485 1483
1491 1495 1502 1506 1496 1494 1500 1489 1489 1490 1488 1491 1497 1492 1488 1491 1491 1491 1492 1493 1494 1496 1497 1498 1499 1500 1500 1501 1501 1501 1501 1501 1500 1499 1498 1497 1495 1494 1492 1490 1488 1486 1484 1481
1489 1497 1505 1508 1502 1511 1492 1473 1475 1479 1478 1479 1479 1480 1482 1484 1486 1488 1490 1491 1492 1494 1495 1496 1497 1498 1498 1499 1499 1499 1499 1499 1498 1497 1496 1495 1493 1492 1490 1488 1486 1484 1482 1480
1480 1491 1504 1510 1510 1502 1483 1470 1470 1476 1478 1471 1474 1476 1479 1482 1486 1488 1488 1489 1490 1491 1493 1494 1495 1496 1497 1497 1497 1497 1497 1497 1496 1495 1494 1492 1491 1489 1487 1486 1484 1482 1480 1478
1482 1486 1500 1508 1506 1506 1483 1464 1461 1468 1476 1466 1467 1472 1476 1480 1488 1486 1485 1487 1488 1490 1491 1492 1493 1494 1495 1495 1496 1495 1495 1494 1493 1492 1491 1490 1488 1486 1485 1483 1481 1479 1477 1475
1488 1492 1499 1504 1505 1494 1470 1462 1463 1482 1476 1461 1462 1466 1470 1473 1475 1478 1481 1484 1486 1487 1489 1490 1491 1492 1493 1493 1494 1493 1493 1492 1491 1489 1488 1487 1485 1483 1482 1480 1478 1476 1474 1472
1487 1493 1497 1502 1503 1493 1460 1462 1465 1464 1457 1457 1459 1462 1465 1468 1471 1475 1478 1481 1483 1485 1487 1488 1489 1490 1491 1491 1491 1490 1490 1489 1488 1487 1485 1483 1482 1480 1478 1476 1474 1473 1471 1469
1477 1474 1477 1478 1475 1459 1454 1454 1454 1454 1455 1456 1457 1460 1463 1466 1469 1472 1475 1478 1481 1483 1484 1486 1487 1488 1488 1488 1488 1488 1487 1486 1485 1484 1482 1480 1479 1477 1475 1473 1471 1469 1468 1466
1468 1464 1468 1468 1460 1453 1451 1451 1451 1452 1453 1454 1456 1458 1461 1463 1466 1470 1473 1475 1478 1480 1482 1483 1484 1485 1486 1486 1485 1485 1484 1483 1482 1480 1479 1477 1475 1473 1472 1470 1468 1466 1464 1463
1463 1462 1464 1463 1455 1451 1449 1448 1449 1450 1451 1452 1454 1456 1458 1461 1464 1466 1469 1472 1474 1477 1479 1480 1482 1482 1483 1483 1483 1482 1481 1480 1479 1478 1476 1475 1473 1471 1469 1468 1466 1464 1463 1461
1456 1458 1461 1459 1450 1450 1446 1445 1446 1447 1447 1449 1451 1453 1456 1458 1460 1463 1466 1469 1471 1474 1476 1477 1479 1480 1480 1480 1480 1480 1479 1478 1477 1475 1474 1472 1470 1469 1467 1465 1465 1463 1462 1460